Home > Time Zones > World Clock > Weather > Iran > Kerman > Past weeks

Flag for Iran Weather past 2 weeks in Kerman, Iran

Now
88 °F

Sunny.


Feels Like: 84 °F
Forecast: 65 / 94 °F
Wind: 5 mph from North

Location: Kerman Airport

Current Time: Jul 4, 2015 at 10:44:57 AM

Latest Report: Jul 4, 2015 at 9:30 AM


Visibility: 10 mi

Pressure: 30.07 "Hg (24.67 "Hg at 1762m altitude)

Humidity: 11%

Dew point: 27 °F

Location of KermanLocation

Historic Weather in Kerman — Graph

°F

Kerman temperature yesterday

Maximum temperature yesterday: 97 °F (at 5:30 PM)
Minimum temperature yesterday: 73 °F (at 5:30 AM)
Average temperature yesterday: 85 °F

Past Weeks' High & Low Weather Summary

 TemperatureHumidityPressure
High100 °F (Jun 21, 3:30 PM)40% (Jun 21, 5:30 AM)30.12 "Hg (Jun 21, 5:30 AM)
Low64 °F (Jun 21, 5:30 AM)2% (Jun 19, 11:30 AM)29.65 "Hg (Jun 27, 5:30 PM)
Average86 °F11%29.93 "Hg
* Reported Jun 19 9:30 AM — Jul 4 9:30 AM, Kerman, Weather by CustomWeather, © 2015

Note: Actual official high and low records may vary slightly from our data, if they occured in-between our weather recording intervals... More about our weather records

Advertising

Kerman weather history for previous 24 hours

 ConditionsComfort  
Time TempWeatherWind HumidityBarometerVisibility
9:30 AM
Sat, Jul 4
88 °FSunny.5 mph11%30.07 "Hg10 mi
9:00 AM86 °FSunny.5 mph11%30.07 "Hg10 mi
8:30 AM84 °FSunny.5 mph11%30.07 "Hg10 mi
8:00 AM81 °FSunny.5 mph14%30.07 "Hg10 mi
7:30 AM75 °FSunny.7 mph16%30.07 "Hg10 mi
6:30 AM77 °FClear.7 mph15%30.07 "Hg10 mi
5:30 AM77 °FClear.12 mph13%30.04 "Hg10 mi
4:30 AM79 °FClear.12 mph13%30.01 "Hg10 mi
3:30 AM79 °FClear.7 mph12%30.04 "Hg10 mi
2:30 AM79 °FClear.7 mph12%30.04 "Hg10 mi
1:30 AM79 °FClear.9 mph12%30.04 "Hg10 mi
12:30 AM77 °FClear.7 mph13%30.04 "Hg10 mi
11:30 PM
Fri, Jul 3
81 °FClear.7 mph12%30.04 "Hg10 mi
10:30 PM82 °FClear.7 mph11%30.04 "Hg10 mi
9:30 PM86 °FClear.7 mph9%30.04 "Hg10 mi
8:30 PM90 °FSunny.9 mph7%30.01 "Hg10 mi
8:00 PM90 °FSunny.14 mph7%30.01 "Hg10 mi
7:30 PM91 °FSunny.14 mph6%30.01 "Hg10 mi
6:30 PM93 °FSunny.9 mph6%30.01 "Hg10 mi
5:30 PM97 °FSunny.5 mph5%30.01 "Hg10 mi
4:30 PM95 °FSunny.7 mph6%30.01 "Hg10 mi
3:30 PM95 °FSunny.7 mph6%30.01 "Hg10 mi
2:30 PM93 °FSunny.7 mph6%30.04 "Hg10 mi
1:30 PM91 °FSunny.9 mph7%30.07 "Hg10 mi
12:30 PM90 °FSunny.9 mph7%30.07 "Hg10 mi
11:30 AM90 °FSunny.14 mph9%30.09 "Hg10 mi
10:30 AM88 °FSunny.14 mph10%30.09 "Hg10 mi
Weather by CustomWeather, © 2015

See weather overviewHow to use our weather pages